Regional Weather Roundup
Issued by NWS

Home | Current Version | Previous Version | Graphics & Text | Print | Product List | Glossary On
Versions: 1 2 3 4 5 6 7 8 9 10 11 12 13 14 15 16 17 18 19 20 21 22 23 24 25 26 27 28 29 30 31 32 33 34 35 36 37 38 39 40 41 42 43 44 45 46 47 48 49 50
000
ASUS43 KTOP 250108
RWRKS

WEATHER ROUNDUP FOR KANSAS
NATIONAL WEATHER SERVICE GOODLAND KS
800 PM CDT SUN JUL 24 2016

NOTE:  "FAIR" INDICATES FEW OR NO CLOUDS BELOW 12,000 FEET WITH NO
SIGNIFICANT WEATHER AND/OR OBSTRUCTIONS TO VISIBILITY.

KSZ001>006-013>018-027>032-041>047-250200-
NORTHWEST KANSAS

CITY           SKY/WX    TMP DP  RH WIND       PRES   REMARKS
GOODLAND       CLOUDY    84  61  45 E15G23    30.09R
HAYS           CLEAR     84  63  48 E22       29.98R
HILL CITY      CLEAR     83  63  50 E15       30.03R
RUSSELL        CLEAR     83  66  56 NE21G26   29.97R
$$

KSZ061>065-074>080-084>089-250200-
SOUTHWEST KANSAS

CITY           SKY/WX    TMP DP  RH WIND       PRES   REMARKS
DODGE CITY     CLEAR     91  60  35 SE7       29.96R
ELKHART          N/A     89  59  36 N2          N/A
GARDEN CITY    CLEAR     87  66  49 E6        29.98R
GREAT BEND     CLOUDY    90  66  45 E18G28    29.94S
LIBERAL        CLEAR     91  63  38 NE7       29.96F
PRATT          CLOUDY    93  63  36 CALM      29.92S
$$

KSZ066>073-081>083-090>101-250200-
SOUTHEAST KANSAS

CITY           SKY/WX    TMP DP  RH WIND       PRES   REMARKS
CHANUTE        PTCLDY    92  77  61 SE5       29.91S HX 105
COFFEYVILLE    CLEAR     94  70  45 SE5       29.90R HX 100
HUTCHINSON     PTCLDY    91  72  53 NE6       29.92R HX  98
MEDICINE LODGE   N/A     97  64  33 E5        29.88S HX  99
NEWTON         PTCLDY    90  73  57 E7        29.94R HX  98
PARSONS        CLEAR     89  78  70 CALM      29.92S HX 103
WICHITA INTL   MOCLDY    96  68  39 SE13      29.89S HX 101
WICHITA JABRA  CLEAR     91  75  59 E8        29.91R HX 101
WICHITA MCCONL CLEAR     94  72  48 SE7       29.91R HX 102
WINFIELD       CLEAR     93  69  45 SE7       29.91R HX  98
$$

KSZ007>012-019>026-033>040-048>060-102>105-250200-
NORTHEAST KANSAS

CITY           SKY/WX    TMP DP  RH WIND       PRES   REMARKS
CONCORDIA      CLEAR     79  62  56 E10       30.00S
EMPORIA        CLEAR     91  73  55 NE12      29.93R HX  99
LAWRENCE       CLOUDY    83  73  72 N9G18     29.94S
MANHATTAN      CLEAR     82  68  62 NE12      29.96R
MARYSVILLE     CLOUDY    79  63  57 NE7       30.00S
OLATHE IND     PTCLDY    87  77  72 N12       29.95S HX  99
OLATHE EXE     CLOUDY    87  76  69 N8        29.94F HX  97
SALINA         CLEAR     88  72  58 NE13      29.95R
TOPEKA BILLARD   N/A     82  69  64 NE13      29.96R
TOPEKA FORBES  CLEAR     84  73  69 NE10      29.96R
$$



USA.gov is the U.S. government's official web portal to all federal, state and local government web resources and services.